Location: Unspecified
(47.9110°N, 14.3980°E)
Time: 21:10:07
(UTC+00:00)

Cosmos 2333 Rocket - Pass Details

Date: 06 August 2020
Orbit: 837 x 864 km, 70.8° (Epoch: 21 September)

Event Time Altitude Azimuth Distance (km) Brightness Sun altitude
Rises 22:56:46 0° 333° (NNW) 3,456 6.4 -25.7°
Reaches altitude 10° 22:59:16 10° 336° (NNW) 2,515 5.5 -25.7°
Maximum altitude 23:05:03 67° 60° (ENE) 933 2.4 -25.7°
Enters shadow 23:06:19 52° 117° (ESE) 1,065 2.5 -25.7°
